Regional Weather Roundup
Issued by NWS Green Bay, WI

Home | Current Version | Previous Version | Graphics & Text | Print | Product List | Glossary Off
Versions: 1 2 3 4 5 6 7 8 9 10 11 12 13 14 15 16 17 18 19 20 21 22 23 24 25 26 27 28 29 30 31 32 33 34 35 36 37 38 39 40 41 42 43 44 45 46 47 48 49 50

000
ASUS43 KGRB 142059
RWRGRB

NORTH-CENTRAL AND NORTHEAST WISCONSIN REGIONAL WEATHER ROUNDUP
NATIONAL WEATHER SERVICE GREEN BAY WI
400 PM CDT SUN SEP 14 2014

WIZ005-009-010>012-018-019-142200-
NORTH CENTRAL WISCONSIN

CITY           SKY/WX    TMP DP  RH WIND       PRES   REMARKS
IRONWOOD       CLOUDY    59  43  55 W16       30.00S
MANITOWISH WTR NOT AVBL
ARBOR VITAE    NOT AVBL
EAGLE RIVER    NOT AVBL
LAND O LAKES   NOT AVBL
RHINELANDER    MOSUNNY   61  41  47 W13G24    30.06S
PHILLIPS       NOT AVBL
ANTIGO         NOT AVBL
TOMAHAWK       NOT AVBL
MERRILL        NOT AVBL
$$

WIZ013-073-142200-
NORTHEAST WISCONSIN

CITY           SKY/WX    TMP DP  RH WIND       PRES   REMARKS
IRON MOUNTAIN  PTSUNNY   62  45  53 SW12G24   30.01F
MARINETTE      MOSUNNY   63  46  55 SW16G24   30.05F
$$

WIZ017-030-035>037-045-142200-
CENTRAL WISCONSIN

CITY           SKY/WX    TMP DP  RH WIND       PRES   REMARKS
MEDFORD        NOT AVBL
WAUSAU         MOSUNNY   64  48  56 W15G22    30.06F
MOSINEE        NOT AVBL
MARSHFIELD     PTSUNNY   65  48  54 W17G29    30.08F
WISC RAPIDS    LGT RAIN  66  46  48 SW15G22   30.10F
STEVENS POINT  NOT AVBL
WAUPACA        NOT AVBL
SHAWANO        NOT AVBL
CLINTONVILLE   NOT AVBL
$$

WIZ038-039-048-051-142200-
FOX VALLEY

CITY           SKY/WX    TMP DP  RH WIND       PRES   REMARKS
NWS GREEN BAY  MOSUNNY   64  46  52 SW16G22   30.10F
APPLETON       PTSUNNY   64  45  48 SW17G24   30.11F
OSHKOSH        MOSUNNY   64  45  49 SW17G24   30.11F
FOND DU LAC    MOSUNNY   64  45  49 S15G23    30.12F
$$

WIZ022-050-052-142200-
EAST CENTRAL WISCONSIN

CITY           SKY/WX    TMP DP  RH WIND       PRES   REMARKS
STURGEON BAY   CLOUDY    61  45  55 SW12G20   30.10S
MANITOWOC      NOT AVBL
SHEBOYGAN      MOSUNNY   63  44  50 SW16G23   30.13F
$$

LMZ563-521-522-541>543-142200-
LAKESHORE

STATION/POSITION TIME  TEMP    WIND        PRES    VSBY  WAVE
                       AIR SEA DIR/SP/G                  HT/PER
                 (UTC) (F)     (DEG/KT/KT) (MB)    (MI)  (FT/S)
SHEBOYGAN LKSHOR 2000   56 51  170/ 22/ 23 1021.1F
KEWAUNEE LKSHORE 2000   54     180/ 14/ 19 1019.0F
NORTHPORT PIER   2000   59     160/ 11/ 21 1019.0F
N MID LAKE BUOY  2000   56 58  210/ 23/ 29 1019.3F         6/ 6
S GREEN BAY BUOY 2000   61     VRB 17/ 21  1019.9F
CHAMBERS ISLAND  2000   62     190/  7/ 19 1018.6F
MENOMINEE LKSHOR 2000   60     180/ 13/ 19 1018.7F
$$



USA.gov is the U.S. government's official web portal to all federal, state and local government web resources and services.